Location: Maccacari
(45.1333°N, 11.1333°E)
Time: 08:40:12
(UTC+00:00)

Ariane Rocket - Pass Details

Date: 18 September 2020
Orbit: 760 x 770 km, 98.7° (Epoch: 30 October)

Event Time Altitude Azimuth Distance (km) Brightness Sun altitude
Exits shadow 18:09:44 - 134° (SE) 2,547 5.2 -9.5°
Reaches altitude 10° 18:10:25 10° 132° (SE) 2,294 4.9 -9.6°
Maximum altitude 18:15:00 36° 66° (ENE) 1,202 3.6 -10.4°
Drops below altitude 10° 18:19:37 10° 2° (N) 2,314 5.6 -11.2°
Sets 18:22:04 0° 354° (N) 3,246 6.5 -11.6°
